Weather Roundup
Issued by NWS

Home | Current Version | Previous Version | Text Only | Print | Product List | Glossary On
Versions: 1 2 3 4 5 6 7 8 9 10 11 12 13 14 15 16 17 18 19 20 21 22 23 24 25 26 27 28 29 30 31 32 33 34 35 36 37 38 39 40 41 42 43 44 45 46 47 48 49 50
000
NZUS93 KARX 260410
HRRWXR

CURRENT HOURLY OBSERVATIONS ACROSS
MUCH OF THE UPPER MISSISSIPPI VALLEY
NATIONAL WEATHER SERVICE LA CROSSE WI
1000 PM CST TUE NOV 25 2014


...SOUTHEAST MINNESOTA...


CITY           SKY/WX    TMP DP  RH WIND       PRES   REMARKS
ROCHESTER      CLOUDY    18  13  80 S7        30.04R WCI   9
ROCHESTER/MAYO CLOUDY    20  12  71 SE8       30.05R WCI  10
WINONA         CLOUDY    21  14  73 SE3       30.11R
AUSTIN         MOCLDY    19  16  86 S6        30.02S WCI  11
ALBERT LEA     MOCLDY    21  18  86 SE8       30.00S WCI  12
DODGE CENTER   CLOUDY    19  18  93 SE10      30.01S WCI   8
PRESTON        PTCLDY    14  10  87 CALM      30.05R
OWATONNA       CLOUDY    21  16  79 SE10      30.00F WCI  10
FARIBAULT      CLOUDY    25  18  74 SE7       30.02S WCI  17
$$

...ELSEWHERE IN MINNESOTA...


CITY           SKY/WX    TMP DP  RH WIND       PRES   REMARKS
MINNEAPOLIS    CLOUDY    24  16  71 SE6       30.04S WCI  17
INTNL FALLS    CLOUDY    16   9  74 N3        30.03R
DULUTH         CLOUDY    18  10  71 SW3       30.02R
RED WING       CLOUDY    25  12  58 CALM      30.06R
REDWOOD FALLS  CLOUDY    27  18  69 SE13      29.92S WCI  16
MANKATO        CLOUDY    25  16  68 SE13      29.98F WCI  13
WORTHINGTON    CLOUDY    30  19  64 S14       29.87S WCI  20
FAIRMONT       MOCLDY    27  16  63 SE14      29.95S WCI  15
$$

...SOUTHWEST WISCONSIN...


CITY           SKY/WX    TMP DP  RH WIND       PRES   REMARKS
LA CROSSE      MOCLDY    19  14  81 SE3       30.12R
PRAIRIE DU CHI CLEAR     14  11  88 SE6       30.12F WCI   5
BOSCOBEL       CLEAR     10   6  84 CALM      30.15R
LONE ROCK      CLEAR     10   4  76 CALM      30.16R
PLATTEVILLE    CLEAR     15  13  91 CALM      30.14R
FORT MC COY    CLOUDY    18  15  86 CALM      30.12R
CAMP DOUGLAS   MOCLDY    14  14 100 CALM      30.11R
VIROQUA        FAIR      15  12  88 S6        30.07S WCI   6
WIS DELLS      CLEAR     10   8  89 CALM      30.12R
$$

...ELSEWHERE IN WISCONSIN...


CITY           SKY/WX    TMP DP  RH WIND       PRES   REMARKS
MILWAUKEE      MOCLDY    19  14  81 SW5       30.17S WCI  12
MADISON        CLEAR     17  13  84 S9        30.13R WCI   6
GREEN BAY      CLOUDY    18  14  84 SW3       30.15S
EAU CLAIRE     CLOUDY    23  14  68 S5        30.06S WCI  17
BLACK RVR FLS  CLOUDY    22  16  78 S3        30.09S
MEDFORD        CLOUDY    19  15  84 S3        30.05R
WAUSAU         PTCLDY    11   8  88 E5        30.08R WCI   3
WIS RAPIDS     CLOUDY    18  14  84 CALM      30.12R
MARSHFIELD     CLOUDY    21  15  78 SW7       30.07R WCI  12
RICE LAKE      CLOUDY    22  16  78 E3        30.06S
$$

...NORTHEAST IOWA...


CITY           SKY/WX    TMP DP  RH WIND       PRES   REMARKS
DECORAH        CLOUDY    18  12  79 S7        30.06S WCI   8
MASON CITY     MOCLDY    20  16  84 SE10      30.02S WCI   9
CHARLES CITY   PTCLDY    19  14  79 SE9       30.05S WCI   9
OELWEIN        PTCLDY    18  14  86 SE9       30.08R WCI   6
$$

...ELSEWHERE IN IOWA...


CITY           SKY/WX    TMP DP  RH WIND       PRES   REMARKS
DES MOINES     CLOUDY    30  14  51 S10       30.02F WCI  21
IOWA CITY      CLEAR     18  16  92 SE6       30.14S WCI  10
FORT DODGE     CLOUDY    28  14  54 SE9       29.97S WCI  20
$$

...NORTHERN ILLINOIS...


CITY           SKY/WX    TMP DP  RH WIND       PRES   REMARKS
CHICAGO-OHARE  FAIR      19  15  84 S5        30.19R WCI  12
CHICAGO-MIDWAY CLOUDY    24  18  77 S7        30.21R WCI  16
MOLINE         CLEAR     16  12  84 CALM      30.17R
ROCKFORD       CLEAR     14  10  84 SE5       30.18F WCI   6
PEORIA         CLEAR     24  18  77 SE5       30.18S WCI  18
$$

NOTE: "FAIR" INDICATES FEW OR NO CLOUDS BELOW 12,000 FEET WITH NO
SIGNIFICANT WEATHER AND/OR OBSTRUCTIONS TO VISIBILITY. WIND
SPEEDS ARE IN MILES-PER-HOUR.



USA.gov is the U.S. government's official web portal to all federal, state and local government web resources and services.